Location: Munderkingen
(48.2395°N, 9.6433°E)
Time: 19:54:52
(UTC+02:00)

ISS - Pass Details

Date: 22 March 2017
Orbit: 399 x 409 km, 51.6° (Epoch: 29 March)

Event Time Altitude Azimuth Distance (km) Brightness Sun altitude
Exits shadow 03:46:47 17° 113° (ESE) 1,112 -1.3 -25.0°
Drops below altitude 10° 03:47:40 10° 113° (ESE) 1,473 -0.6 -24.9°
Sets 03:49:45 0° 114° (ESE) 2,333 0.5 -24.6°
